This is the latest recevied weather packets stored in our database for station/object KF5JED-13. If no packets are shown the sender has not sent any weather packets the latest 10 day(s).
| Time | Temp. | Humidity | Pressure | Rain* | Wind** | Luminosity | Snow |
|---|---|---|---|---|---|---|---|
| 1777712216 | 2.22° C | 91% | 1021.4 hPa | 0 mm | - | 0 W/m² | - |
| 1777711908 | 2.22° C | 91% | 1021.2 hPa | 0 mm | - | 0 W/m² | - |
| 1777711605 | 2.78° C | 91% | 1021.1 hPa | 0 mm | - | 0 W/m² | - |
| 1777711299 | 2.78° C | 91% | 1021.2 hPa | 0 mm | - | 0 W/m² | - |
| 1777710997 | 3.33° C | 91% | 1021.2 hPa | 0 mm | - | 0 W/m² | - |
| 1777710693 | 3.33° C | 92% | 1021.1 hPa | 0 mm | - | 0 W/m² | - |
| 1777710391 | 2.78° C | 91% | 1021.2 hPa | 0 mm | - | 0 W/m² | - |
| 1777710087 | 2.22° C | 91% | 1021.1 hPa | 0 mm | - | 0 W/m² | - |
| 1777709785 | 1.67° C | 90% | 1021.4 hPa | 0 mm | - | 0 W/m² | - |
| 1777709482 | 1.67° C | 90% | 1021.5 hPa | 0 mm | - | 0 W/m² | - |
| 1777709180 | 2.22° C | 90% | 1021.5 hPa | 0 mm | - | 0 W/m² | - |
| 1777708877 | 2.78° C | 90% | 1021.5 hPa | 0 mm | - | 0 W/m² | - |
| 1777708574 | 2.78° C | 90% | 1021.8 hPa | 0 mm | - | 0 W/m² | - |
| 1777708272 | 2.78° C | 89% | 1021.6 hPa | 0 mm | - | 0 W/m² | - |
| 1777707969 | 2.78° C | 89% | 1021.7 hPa | 0 mm | - | 0 W/m² | - |
| 1777707666 | 2.78° C | 89% | 1021.6 hPa | 0 mm | - | 0 W/m² | - |
| 1777707362 | 2.78° C | 89% | 1021.7 hPa | 0 mm | - | 0 W/m² | - |
| 1777707059 | 2.78° C | 88% | 1022 hPa | 0 mm | - | 0 W/m² | - |
| 1777706756 | 2.78° C | 88% | 1021.9 hPa | 0 mm | - | 0 W/m² | - |
| 1777706455 | 2.78° C | 88% | 1022 hPa | 0 mm | - | 0 W/m² | - |
| 1777706152 | 2.78° C | 87% | 1021.9 hPa | 0 mm | - | 0 W/m² | - |
| 1777705850 | 3.33° C | 87% | 1022.1 hPa | 0 mm | - | 0 W/m² | - |
| 1777705548 | 3.33° C | 87% | 1022.1 hPa | 0 mm | - | 0 W/m² | - |
| 1777705245 | 3.89° C | 87% | 1022 hPa | 0 mm | - | 0 W/m² | - |
| 1777704943 | 3.89° C | 86% | 1022.1 hPa | 0 mm | - | 0 W/m² | - |
* Rain latest hour (hover to see other rain measurements)
** Current wind speed in m/s (hover to see current wind gust speed)